This is the latest recevied weather packets stored in our database for station/object DB0ROB-10. If no packets are shown the sender has not sent any weather packets the latest 10 day(s).
| Time | Temp. | Humidity | Pressure | Rain* | Wind** | Luminosity | Snow |
|---|---|---|---|---|---|---|---|
| 1777573881 | 9.44° C | 25% | 1023.2 hPa | - | - | - | - |
| 1777572981 | 10° C | 25% | 1023.2 hPa | - | - | - | - |
| 1777572081 | 10° C | 24% | 1022.9 hPa | - | - | - | - |
| 1777571180 | 10.56° C | 23% | 1022.7 hPa | - | - | - | - |
| 1777570279 | 11.11° C | 23% | 1022.8 hPa | - | - | - | - |
| 1777569379 | 11.11° C | 21% | 1023 hPa | - | - | - | - |
| 1777568477 | 11.67° C | 22% | 1022.9 hPa | - | - | - | - |
| 1777567577 | 12.22° C | 20% | 1022.9 hPa | - | - | - | - |
| 1777566676 | 11.67° C | 21% | 1022.9 hPa | - | - | - | - |
| 1777565776 | 12.22° C | 20% | 1022.9 hPa | - | - | - | - |
| 1777564876 | 11.67° C | 19% | 1022.7 hPa | - | - | - | - |
| 1777563976 | 12.22° C | 21% | 1022.6 hPa | - | - | - | - |
| 1777563076 | 12.22° C | 20% | 1022.5 hPa | - | - | - | - |
| 1777562175 | 12.78° C | 20% | 1022.7 hPa | - | - | - | - |
| 1777561275 | 12.78° C | 20% | 1022.7 hPa | - | - | - | - |
| 1777560374 | 12.78° C | 21% | 1022.6 hPa | - | - | - | - |
| 1777559474 | 12.78° C | 21% | 1022.8 hPa | - | - | - | - |
| 1777558574 | 12.78° C | 20% | 1022.7 hPa | - | - | - | - |
| 1777557673 | 12.78° C | 20% | 1022.7 hPa | - | - | - | - |
| 1777556781 | 12.78° C | 20% | 1022.7 hPa | - | - | - | - |
| 1777555881 | 12.78° C | 22% | 1022.8 hPa | - | - | - | - |
| 1777554980 | 12.22° C | 21% | 1022.7 hPa | - | - | - | - |
| 1777554079 | 12.22° C | 22% | 1022.6 hPa | - | - | - | - |
| 1777553179 | 12.22° C | 24% | 1022.8 hPa | - | - | - | - |
| 1777552278 | 11.67° C | 23% | 1022.9 hPa | - | - | - | - |
* Rain since midnight (hover to see other rain measurements)
** Current wind speed in m/s (hover to see current wind gust speed)